TimeCST,TemperatureF,Dew PointF,Humidity,Sea Level PressureIn,VisibilityMPH,Wind Direction,Wind SpeedMPH,Gust SpeedMPH,PrecipitationIn,Events,Conditions,WindDirDegrees,DateUTC
1:53 AM,16.0,10.0,77,30.39,10.0,NNE,6.9,-,N/A,,Clear,20,2013-01-14 07:53:00
2:53 AM,16.0,10.0,77,30.40,10.0,NNE,5.8,-,N/A,,Clear,30,2013-01-14 08:53:00
3:53 AM,19.0,10.0,68,30.41,10.0,NNE,8.1,-,N/A,,Clear,30,2013-01-14 09:53:00
4:53 AM,18.0,12.0,78,30.40,10.0,NNE,8.1,-,N/A,,Clear,20,2013-01-14 10:53:00
5:53 AM,18.0,10.9,74,30.41,10.0,North,6.9,-,N/A,,Clear,10,2013-01-14 11:53:00
6:53 AM,18.0,10.0,71,30.44,10.0,North,10.4,-,N/A,,Clear,10,2013-01-14 12:53:00
7:53 AM,19.0,10.9,71,30.45,10.0,NNE,8.1,-,N/A,,Clear,30,2013-01-14 13:53:00
8:53 AM,19.9,10.9,68,30.44,10.0,NE,10.4,-,N/A,,Scattered Clouds,40,2013-01-14 14:53:00
9:53 AM,23.0,10.9,60,30.44,10.0,NE,13.8,-,N/A,,Mostly Cloudy,50,2013-01-14 15:53:00
10:53 AM,26.1,10.9,53,30.44,10.0,NE,13.8,-,N/A,,Clear,50,2013-01-14 16:53:00
11:53 AM,28.0,10.0,47,30.41,10.0,ENE,13.8,-,N/A,,Clear,60,2013-01-14 17:53:00
12:53 PM,30.0,9.0,41,30.37,10.0,ENE,15.0,-,N/A,,Clear,60,2013-01-14 18:53:00
2:53 PM,32.0,10.9,42,30.32,10.0,NE,11.5,-,N/A,,Clear,50,2013-01-14 20:53:00
3:53 PM,32.0,10.9,42,30.32,10.0,ENE,10.4,-,N/A,,Overcast,70,2013-01-14 21:53:00
4:53 PM,30.9,10.9,43,30.33,10.0,NE,12.7,-,N/A,,Overcast,50,2013-01-14 22:53:00
5:53 PM,28.0,12.0,51,30.34,10.0,ENE,10.4,-,N/A,,Mostly Cloudy,60,2013-01-14 23:53:00
6:53 PM,26.1,14.0,60,30.35,10.0,NE,8.1,-,N/A,,Scattered Clouds,50,2013-01-15 00:53:00
7:53 PM,27.0,14.0,58,30.35,10.0,NE,8.1,-,N/A,,Overcast,50,2013-01-15 01:53:00
8:53 PM,27.0,12.9,56,30.34,10.0,ENE,8.1,-,N/A,,Overcast,60,2013-01-15 02:53:00
9:53 PM,27.0,12.9,56,30.33,10.0,NE,5.8,-,N/A,,Overcast,50,2013-01-15 03:53:00
10:53 PM,25.0,15.1,66,30.33,10.0,North,6.9,-,N/A,,Overcast,360,2013-01-15 04:53:00
11:53 PM,25.0,15.1,66,30.33,10.0,North,6.9,-,N/A,,Overcast,10,2013-01-15 05:53:00